Regional Weather Roundup
Issued by NWS

Home | Current Version | Previous Version | Text Only | Print | Product List | Glossary Off
Versions: 1 2 3 4 5 6 7 8 9 10 11 12 13 14 15 16 17 18 19 20 21 22 23 24 25 26 27 28 29 30 31 32 33 34 35 36 37 38 39 40 41 42 43 44 45 46 47 48 49 50

000
ASUS43 KIND 190059
RWRIN

WEATHER ROUNDUP FOR INDIANA
NATIONAL WEATHER SERVICE INDIANAPOLIS IN
900 PM EDT SAT APR 18 2015

NOTE: "FAIR" INDICATES FEW OR NO CLOUDS BELOW 12,000 FEET WITH NO
SIGNIFICANT WEATHER AND/OR OBSTRUCTIONS TO VISIBILITY.

* - STATION DOES NOT REPORT WEATHER SUCH AS PRECIPITATION OR FOG.

+ - STATION NOT QUALITY CONTROLLED BY THE NATIONAL WEATHER SERVICE.
    USE DATA WITH CAUTION...ESPECIALLY DEWPOINT AND RELATIVE
    HUMIDITY OBSERVATIONS.

INZ001>003-010>013-019-020-190200-
NORTHWEST INDIANA

CITY           SKY/WX    TMP DP  RH WIND       PRES   REMARKS
GARY /AIRPORT/ MOCLDY    45  34  65 N6        30.02F
RENSSELAER +   MOCLDY    57  43  58 N7        29.98R

$$

LMZ046-743>745-190200-
SOUTHERN LAKE MICHIGAN

STATION/POSITION TIME  TEMP WIND        PRES
                       AIR  DIR/SP/G
                 (UTC) (F)  (DEG/KT/KT) (MB)
BURNS HARBOR     0000   42  310/  7/  8 1016.9F
MICHIGAN CITY    0000   43  290/  5/  6   N/A
4NW MICH CITY    0000   41  290/  4/  8   N/A

$$

INZ004-005-014>016-021>024-190200-
NORTH CENTRAL INDIANA

CITY           SKY/WX    TMP DP  RH WIND       PRES   REMARKS
GOSHEN         MOCLDY    64  43  46 E17       30.02R
SOUTH BEND     MOCLDY    70  46  42 E17G24    30.00R

$$

INZ006>009-017-018-025>027-190200-
NORTHEAST INDIANA

CITY           SKY/WX    TMP DP  RH WIND       PRES   REMARKS
ANGOLA *+      CLEAR     61  32  33 E14       30.06R
FORT WAYNE     CLOUDY    61  34  36 E20       30.04R

$$

INZ028-029-035-036-043>045-051>053-190200-
WEST CENTRAL INDIANA

CITY           SKY/WX    TMP DP  RH WIND       PRES   REMARKS
CRAWFORDSVL +  PTCLDY    64  43  46 SE5       29.96R
GREENCASTLE +  MOCLDY    64  45  48 E5        29.96S
LAFAYETTE      PTCLDY    65  49  56 CALM      29.95R
TERRE HAUTE    MOCLDY    65  50  58 E7        29.93S

$$

INZ030>032-037>040-046>048-054>057-064-065-190200-
CENTRAL INDIANA

CITY           SKY/WX    TMP DP  RH WIND       PRES   REMARKS
COLUMBUS       PTCLDY    64  46  52 NE7       29.95S
INDIANAPOLIS   MOCLDY    68  46  45 E8        29.95R
-EAGLE CREEK   MOCLDY    70  46  42 SE6       29.96R
KOKOMO *+      MOCLDY    66  50  55 SE5       29.96S
MT COMFORT *+  MOCLDY    68  37  32 E5        29.98R
SHELBYVILLE    MOCLDY    65  49  56 E7        29.96R

$$

INZ033-034-041-042-049-050-058-059-190200-
EAST CENTRAL INDIANA

CITY           SKY/WX    TMP DP  RH WIND       PRES   REMARKS
MUNCIE         PTCLDY    64  51  62 E5        29.98R

$$

INZ060-061-067>069-081>083-085>088-190200-
SOUTHWEST INDIANA

CITY           SKY/WX    TMP DP  RH WIND       PRES   REMARKS
EVANSVILLE     MOCLDY    71  55  56 N3        29.89R
HUNTINGBURG *+ MOCLDY    70  46  43 E7        29.91R

$$

INZ062-063-066-070>080-084-089>092-190200-
SOUTH CENTRAL AND SOUTHEAST INDIANA

CITY           SKY/WX    TMP DP  RH WIND       PRES   REMARKS
BLOOMINGTON    CLOUDY    70  44  39 E5        29.94S
MADISON *+     MOCLDY    68  41  37 NE6       29.96F

$$



USA.gov is the U.S. government's official web portal to all federal, state and local government web resources and services.